This demonstration page uses our WeatherBlox Daily Observations layout. Learn more.

39.92423, -83.80882

Hourly Observations for September 22, 2018

Temp ( °F °C ) Dew Point ( °F °C ) Humidity (%) Winds ( mph kmh ) Pressure ( in mb ) Visibility ( mi km ) Precip ( " mm )
12:56 am 00:56 Clear 64 17.8 56 13.3 75 75 VRB 5 7 30.15 1021 10 16.0934 0 0
1:56 am 01:56 Mostly Clear 63 17.2 56 13.3 78 78 N 12 19 30.16 1021 10 16.0934 0 0
2:56 am 02:56 Clear 62 16.7 53 11.7 73 73 N 15 24 30.16 1021 10 16.0934 0 0
3:56 am 03:56 Clear 60 15.6 52 11.1 75 75 N 13 20 30.17 1022 10 16.0934 0 0
4:56 am 04:56 Clear 59 15 53 11.7 81 81 N 8 13 30.18 1022 10 16.0934 0 0
5:56 am 05:56 Clear 58 14.4 52 11.1 81 81 NNE 12 19 30.2 1023 10 16.0934 0 0
6:56 am 06:56 Clear 58 14.4 52 11.1 81 81 NNE 13 20 30.22 1023 10 16.0934 0 0
7:56 am 07:56 Sunny 57 13.9 52 11.1 83 83 NNE 8 13 30.24 1024 10 16.0934 0 0
8:56 am 08:56 Mostly Sunny 57 13.9 51 10.6 81 81 NNE 10 17 30.24 1024 10 16.0934 0 0
9:56 am 09:56 Mostly Sunny 58 14.4 52 11.1 81 81 NE 14 22 30.24 1024 10 16.0934 0 0
10:56 am 10:56 Sunny 60 15.6 53 11.7 78 78 NE 13 20 30.25 1024 10 16.0934 0 0
11:56 am 11:56 Partly Cloudy 61 16.1 53 11.7 75 75 NE 12 19 30.27 1025 10 16.0934 0 0
12:56 pm 12:56 Partly Cloudy 61 16.1 54 12.2 78 78 NE 9 15 30.26 1025 10 16.0934 0 0
1:04 pm 13:04 Mostly Cloudy 61 16 54 12 77 77 NE 9 15 30.27 1025 10 16.0934 0 0
1:56 pm 13:56 Mostly Cloudy 62 16.7 54 12.2 75 75 NE 10 17 30.25 1025 10 16.0934 0 0
2:18 pm 14:18 Partly Cloudy 63 17 54 12 73 73 E 12 19 30.24 1024 10 16.0934 0 0
2:56 pm 14:56 Sunny 62 16.7 54 12.2 75 75 ENE 9 15 30.22 1024 10 16.0934 0 0
3:56 pm 15:56 Partly Cloudy 62 16.7 54 12.2 75 75 E 10 17 30.21 1023 10 16.0934 0 0
4:56 pm 16:56 Mostly Sunny 62 16.7 54 12.2 75 75 ENE 8 13 30.2 1023 10 16.0934 0 0
5:56 pm 17:56 Sunny 61 16.1 54 12.2 78 78 E 8 13 30.2 1023 10 16.0934 0 0
6:56 pm 18:56 Sunny 60 15.6 54 12.2 80 80 E 7 11 30.2 1023 10 16.0934 0 0
7:56 pm 19:56 Clear 58 14.4 54 12.2 87 87 NE 5 7 30.21 1023 10 16.0934 0 0
8:56 pm 20:56 Clear 58 14.4 55 12.8 90 90 SE 5 7 30.21 1023 10 16.0934 0 0
9:56 pm 21:56 Clear 57 13.9 55 12.8 93 93 E 6 9 30.21 1023 10 16.0934 0 0
10:56 pm 22:56 Clear 55 12.8 54 12.2 96 96 E 5 7 30.21 1023 10 16.0934 0 0
11:56 pm 23:56 Clear 53 11.7 53 11.7 100 100 ENE 6 9 30.2 1023 10 16.0934 0 0

Powered by AerisWeather